Vertical_Velocity
2 -1 3 3 2 -2 -6 -1 -0 -0 -3 -2 -3 -0 -2 -5 -0 -3 -3 -1 -1 -1 2 1 -2 -1 -3 3 -37 9 0 5 1 -3 1 -0 3 2 1 0 6 7 -5 1 -3 2 -2
-6 -2 1 1 -1 -1 3 -2 3 -4 1 -0 -4 -1 -4 2 -0 -1 -2 -2 -1 1 2 2 3 -0 6 3 3 8 4 1 7 -4 -3 -1 -7 -5 3 -2 7 -5 0 -5 -1 -3 0
0 4 -3 -4 -0 -3 -2 1 1 -1 -2 1 -1 -2 2 -6 3 -4 -3 -3 1 -0 3 -2 6 1 3 -57 3 5 7 3 0 8 8 2 -9 20 2 0 -9 -2 5 -1 -2 -5 -3
2 -3 1 -2 -1 1 2 3 -1 2 -0 -4 3 -4 0 -5 0 -4 -2 3 -8 5 2 4 -1 7 -21 -2 4 -7 4 -5 1 -6 4 2 9 8 7 2 -6 2 1 3 -11 0 -14
-1 -3 -2 -1 -2 -2 -2 0 3 2 0 -2 -1 0 -7 1 -4 -0 -2 -2 -4 3 2 4 -4 6 -19 -2 -3 -3 -5 -7 -8 1 -5 -3 9 2 -5 -0 -3 -1 -2 1 -6 -1 0
7 -4 -2 -2 -1 -2 -1 -3 -4 4 1 0 0 -3 -3 -3 0 1 -1 -2 -4 -5 9 -2 9 10 -4 -17 17 10 -2 9 -4 3 1 9 5 1 -1 0 -4 -3 1 -1 -2 -21 2
-2 3 -1 -3 0 3 -3 2 2 -3 4 -1 -2 -1 -3 -0 -2 1 -4 -21 -15 -4 3 -9 -8 -6 7 14 8 -8 3 24 -6 9 1 -0 -0 -2 -4 -1 -2 2 5 2 -7 -9 13
-4 1 2 2 0 -0 -1 -3 -4 3 3 -2 -1 1 -0 -4 -4 -0 5 -1 12 12 -13 -0 -18 -5 -10 17 -5 -13 15 11 4 -1 3 3 -3 -5 0 2 4 1 3 -8 -10 -4 17
0 -1 -3 -2 -2 -1 -1 -2 1 0 1 -0 -1 -3 -3 -5 -5 2 0 5 27 7 3 -25 -4 -6 -17 6 -7 -24 15 -5 1 3 -0 -2 -3 0 2 0 5 -2 4 -3 10 -8 -7
-2 -2 -3 -2 -2 -1 -1 -2 1 1 -2 -1 -1 -1 -7 -8 1 -4 5 9 3 3 3 -15 2 -8 16 -4 -1 -6 2 -8 4 -2 0 -3 -4 -0 0 -0 2 5 -2 3 1 0 -4
0 -3 -2 -0 -2 -2 -0 -3 -0 -2 1 -2 -1 1 -3 3 -10 -2 4 -1 -8 9 3 6 10 5 5 -5 7 1 1 17 -2 -3 5 -12 -0 -0 1 -7 1 -11 3 3 2 2 8
-1 -1 -1 -2 -2 -1 -1 -3 -2 -1 -3 -1 -3 -3 1 -2 2 3 -5 3 0 10 -13 6 1 -0 5 3 -3 3 3 4 0 2 -2 -3 1 -1 -3 0 -0 1 2 -0 -1 4 5
-0 -0 -0 -1 -1 -2 -1 -1 -2 -2 -4 -1 0 -1 -2 1 -23 6 6 -6 6 4 -13 6 -2 2 -0 1 3 1 -0 2 -3 -2 -0 -2 -2 2 -4 -2 2 0 4 1 6 6 -8
-2 -0 1 -0 -1 -1 -2 -2 -2 -1 0 -2 3 2 -5 -3 -6 7 5 5 9 -8 -2 -0 -1 1 1 1 -2 2 2 1 2 1 -1 -1 -8 0 -0 -8 -8 -2 -1 -1 -2 -0 -0
0 1 -1 -2 -2 -0 -0 -1 1 -1 1 0 2 -7 -16 -7 -3 9 13 5 -5 0 3 0 -2 0 -2 -1 -2 -2 -1 -1 -2 -3 -6 1 -4 -2 2 -1 -5 -3 5 -8 3 1 2
-3 -2 -1 -2 -1 0 -0 -2 1 -1 2 5 -4 1 -27 2 10 12 9 -6 0 3 1 -4 2 2 1 0 0 0 -2 1 1 -0 -2 -1 -1 -1 -2 3 6 -5 -2 6 3 0 0
-0 0 2 -1 -1 -1 3 -1 4 2 -1 6 1 0 -20 -2 16 13 1 -5 -1 -8 17 8 1 -1 3 4 1 0 3 2 -1 2 -1 2 2 -10 -5 0 -6 3 3 2 2 1 1
-5 5 -0 -2 -1 0 2 -1 1 0 5 5 -1 3 3 19 5 -0 0 -2 1 -6 -4 -2 5 2 3 0 0 0 2 -1 1 1 0 4 2 0 -9 -8 -3 -6 -5 -2 3 1 -1
2 0 1 -0 -0 -1 1 -0 1 3 4 4 3 -3 10 -4 1 1 -0 -3 1 2 -4 -1 -0 2 -0 1 -1 2 -0 5 -3 -1 -1 0 -3 -1 -6 -2 -3 1 -2 -1 0 2 -1
-1 2 -1 1 1 -2 -0 -1 1 5 4 2 1 -3 8 0 -2 3 1 -5 -1 -4 -3 1 1 4 2 -0 -2 -3 -2 -1 0 -1 -0 -3 0 1 3 3 2 -0 0 -1 1 2 -2
-5 -1 3 0 4 3 -1 -3 3 4 9 5 -2 -5 3 -1 0 0 4 2 -0 -3 -1 4 -2 3 4 1 -1 -1 -1 -4 -0 -0 1 -4 -1 2 -2 -0 2 -1 1 -1 3 -5 2
1 -2 -1 2 -1 -2 -0 0 0 7 10 7 2 -0 8 -2 -0 2 -2 -3 2 -9 11 -7 5 -1 2 2 0 -2 1 0 1 -6 -0 -2 -4 1 -3 -1 2 1 -0 0 0 -0 1
-2 2 2 1 1 -1 -0 1 -3 5 12 3 -3 -11 6 -5 -2 2 -4 -4 -5 4 -11 2 2 5 1 1 4 3 2 -1 -0 -1 -0 -0 1 -0 -3 1 -1 -1 -6 -1 -1 0 -3
-3 -1 -0 1 2 -2 1 4 9 -2 9 -3 -8 8 4 -5 2 1 1 4 1 -1 6 -2 3 3 4 3 -9 -1 0 2 2 -1 -0 -0 1 1 -2 -2 2 -15 -1 -2 -1 -2 -0
-1 1 2 -1 -1 -0 1 3 9 2 7 2 -3 3 1 -2 0 -2 -1 2 0 -0 1 4 -5 8 -2 -6 0 -2 -3 -1 -3 -2 0 -0 0 -1 -2 0 -7 -14 1 2 -1 1 2
1 3 0 -0 3 2 1 2 3 2 -4 6 -4 4 6 1 -7 -1 4 5 2 -1 -2 -6 11 -2 -1 -0 -1 0 -1 -4 0 0 1 5 0 -3 -0 2 -2 -13 -2 1 -0 2 3
-0 -0 -0 -0 2 3 0 0 2 3 4 8 -6 -2 16 4 -23 10 -2 6 4 -3 1 1 -1 -3 2 -0 -0 -0 -2 0 1 0 -1 3 3 -2 -0 -0 -7 -2 -0 0 -3 4 3
-1 0 -1 -0 1 2 3 2 2 2 1 20 -19 8 -4 2 -13 -3 1 7 -4 4 2 -0 -6 -3 -0 -1 -1 -3 1 -4 2 -1 0 -4 -2 -1 2 2 -7 2 -2 -7 -2 8 1
1 -0 0 0 -0 0 -1 0 1 2 3 20 6 -0 4 3 1 5 -3 -3 -0 -9 19 2 2 1 1 1 -1 -1 -1 -1 -0 -2 3 1 -6 -6 -11 -11 1 9 6 9 1 -2 6
Height
1530 1530 1529 1526 1524 1523 1523 1521 1519 1517 1512 1510 1509 1507 1504 1500 1498 1495 1494 1493 1492 1489 1486 1484 1482 1480 1477 1475 1458 1459 1458 1459 1459 1460 1460 1463 1465 1466 1465 1462 1464 1463 1460 1458 1457 1455 1453
1527 1528 1526 1525 1523 1521 1520 1518 1518 1514 1511 1509 1506 1504 1500 1498 1495 1491 1490 1489 1488 1484 1482 1480 1478 1477 1475 1470 1453 1455 1454 1454 1457 1456 1459 1461 1462 1463 1461 1458 1458 1456 1454 1452 1451 1450 1448
1525 1523 1523 1522 1521 1519 1519 1516 1514 1511 1508 1506 1501 1500 1496 1496 1490 1489 1485 1484 1483 1479 1478 1474 1475 1472 1468 1446 1450 1451 1452 1451 1452 1454 1456 1458 1459 1460 1458 1456 1454 1452 1454 1448 1446 1444 1444
1523 1522 1520 1519 1518 1516 1515 1513 1511 1508 1504 1502 1499 1495 1495 1491 1490 1485 1482 1478 1477 1474 1472 1470 1470 1468 1456 1446 1446 1444 1446 1446 1448 1450 1452 1453 1454 1455 1455 1453 1451 1453 1452 1457 1443 1441 1438
1520 1520 1519 1517 1514 1514 1512 1511 1508 1505 1502 1500 1497 1494 1492 1489 1487 1482 1477 1472 1470 1470 1467 1467 1467 1466 1449 1444 1442 1442 1443 1443 1446 1448 1450 1450 1452 1451 1452 1456 1461 1455 1465 1455 1445 1437 1437
1518 1517 1516 1515 1512 1510 1508 1506 1505 1503 1500 1498 1495 1492 1490 1487 1483 1478 1474 1467 1464 1464 1464 1464 1463 1469 1443 1439 1441 1442 1443 1445 1446 1446 1447 1448 1449 1451 1454 1461 1469 1465 1459 1454 1447 1436 1432
1516 1513 1512 1512 1509 1507 1505 1503 1501 1499 1498 1495 1494 1491 1488 1484 1480 1476 1473 1466 1469 1464 1464 1457 1450 1443 1436 1436 1436 1439 1441 1443 1443 1443 1445 1442 1451 1456 1455 1453 1451 1451 1452 1449 1439 1430 1434
1511 1510 1509 1507 1506 1504 1502 1500 1498 1496 1495 1493 1492 1488 1484 1480 1477 1475 1475 1473 1474 1473 1459 1447 1440 1438 1436 1437 1438 1436 1441 1442 1441 1443 1440 1445 1446 1445 1446 1447 1448 1451 1454 1446 1435 1428 1432
1508 1506 1505 1504 1502 1500 1498 1496 1494 1493 1492 1490 1488 1485 1483 1479 1476 1476 1474 1475 1473 1470 1467 1431 1426 1427 1429 1434 1434 1429 1436 1437 1438 1439 1437 1440 1437 1437 1441 1444 1446 1449 1451 1448 1449 1430 1421
1503 1502 1501 1500 1498 1496 1494 1492 1491 1489 1489 1487 1485 1483 1482 1479 1478 1474 1472 1472 1470 1470 1466 1430 1421 1419 1424 1427 1429 1426 1429 1433 1434 1435 1434 1433 1430 1433 1440 1446 1448 1451 1450 1452 1458 1460 1456
1500 1499 1497 1496 1493 1492 1491 1489 1488 1486 1485 1483 1482 1481 1480 1479 1475 1473 1472 1470 1469 1471 1466 1413 1417 1418 1419 1425 1423 1426 1427 1428 1430 1431 1430 1432 1431 1435 1442 1443 1444 1449 1452 1454 1461 1464 1455
1496 1494 1493 1492 1490 1489 1487 1485 1484 1482 1481 1480 1479 1478 1477 1476 1474 1471 1471 1469 1469 1469 1449 1412 1412 1415 1419 1421 1419 1423 1425 1426 1425 1429 1425 1428 1425 1429 1434 1438 1444 1451 1454 1451 1458 1464 1457
1492 1490 1489 1488 1486 1485 1484 1482 1481 1479 1478 1476 1475 1475 1474 1473 1470 1471 1471 1469 1468 1457 1409 1408 1410 1410 1412 1411 1414 1416 1421 1426 1430 1436 1434 1427 1427 1427 1432 1443 1448 1456 1456 1454 1457 1456 1448
1489 1487 1485 1484 1483 1481 1480 1477 1476 1475 1474 1472 1471 1470 1469 1468 1468 1469 1471 1470 1460 1423 1414 1401 1405 1407 1411 1406 1408 1408 1415 1424 1422 1423 1428 1436 1440 1425 1429 1432 1439 1447 1453 1446 1442 1442 1429
1485 1484 1482 1481 1479 1477 1475 1474 1472 1471 1470 1469 1467 1465 1463 1462 1464 1468 1471 1466 1441 1426 1417 1414 1407 1411 1411 1405 1406 1405 1411 1412 1413 1418 1429 1430 1428 1414 1414 1420 1431 1435 1444 1441 1444 1444 1440
1481 1480 1478 1476 1475 1473 1471 1470 1469 1468 1467 1467 1464 1463 1455 1457 1460 1465 1464 1452 1439 1427 1427 1419 1418 1411 1414 1410 1410 1408 1408 1414 1415 1417 1417 1425 1432 1412 1409 1417 1423 1426 1429 1439 1450 1443 1437
1477 1476 1474 1472 1470 1468 1467 1466 1465 1465 1464 1464 1463 1462 1449 1453 1458 1461 1453 1449 1439 1436 1434 1427 1425 1423 1422 1420 1412 1414 1413 1421 1417 1419 1420 1426 1430 1420 1413 1416 1419 1430 1432 1445 1442 1437 1428
1472 1471 1469 1467 1466 1464 1463 1462 1462 1462 1462 1462 1462 1458 1449 1449 1456 1452 1451 1447 1442 1439 1437 1436 1429 1429 1428 1424 1421 1420 1416 1419 1421 1421 1426 1427 1427 1426 1418 1408 1407 1414 1425 1434 1438 1429 1424
1467 1466 1464 1462 1461 1460 1459 1459 1459 1459 1460 1460 1457 1452 1449 1449 1451 1448 1447 1446 1447 1442 1442 1435 1431 1428 1427 1428 1433 1422 1420 1418 1421 1424 1429 1429 1429 1430 1415 1411 1410 1418 1418 1424 1434 1431 1430
1461 1460 1459 1457 1456 1456 1455 1456 1456 1457 1458 1460 1458 1454 1445 1447 1447 1447 1445 1443 1442 1439 1437 1436 1434 1431 1429 1430 1428 1428 1424 1421 1422 1423 1424 1426 1429 1431 1434 1431 1433 1428 1422 1423 1429 1429 1421
1456 1455 1453 1452 1451 1451 1451 1452 1453 1454 1456 1459 1458 1453 1448 1446 1445 1445 1446 1444 1443 1442 1434 1433 1432 1432 1432 1434 1430 1430 1426 1423 1422 1423 1423 1426 1431 1426 1426 1422 1418 1422 1416 1424 1425 1427 1424
1450 1448 1447 1446 1446 1446 1446 1446 1447 1450 1454 1455 1455 1454 1450 1447 1446 1446 1443 1441 1438 1437 1436 1437 1433 1431 1432 1433 1431 1432 1430 1428 1428 1428 1429 1425 1428 1423 1423 1415 1411 1410 1409 1412 1419 1421 1418
1443 1442 1441 1440 1440 1439 1439 1438 1439 1444 1449 1449 1451 1451 1453 1447 1445 1445 1443 1441 1436 1436 1433 1434 1437 1438 1434 1434 1434 1432 1430 1429 1429 1432 1433 1433 1430 1426 1425 1413 1410 1416 1402 1398 1402 1406 1411
1435 1434 1434 1434 1433 1433 1433 1433 1430 1435 1440 1443 1446 1450 1452 1449 1447 1444 1439 1437 1437 1438 1436 1434 1435 1441 1434 1433 1432 1430 1427 1427 1427 1429 1430 1433 1431 1430 1433 1423 1420 1400 1389 1387 1391 1390 1389
1428 1427 1427 1427 1426 1426 1426 1427 1426 1428 1433 1436 1441 1447 1448 1448 1444 1441 1440 1437 1435 1434 1434 1434 1432 1434 1433 1434 1436 1439 1432 1427 1422 1421 1424 1425 1429 1438 1436 1430 1412 1395 1382 1390 1390 1393 1385
1420 1420 1420 1419 1419 1420 1420 1421 1423 1424 1427 1432 1435 1442 1446 1446 1441 1441 1439 1437 1438 1437 1433 1430 1432 1432 1433 1435 1436 1437 1433 1424 1418 1412 1409 1417 1421 1433 1436 1426 1426 1402 1389 1384 1383 1402 1395
1413 1412 1412 1412 1412 1413 1414 1415 1417 1418 1420 1426 1428 1436 1442 1442 1438 1440 1441 1441 1439 1439 1436 1430 1431 1432 1433 1436 1434 1439 1433 1417 1419 1414 1413 1416 1423 1425 1431 1431 1418 1394 1391 1386 1398 1415 1402
1404 1404 1404 1404 1405 1406 1407 1408 1409 1412 1416 1417 1421 1429 1436 1436 1435 1437 1436 1439 1441 1441 1441 1437 1436 1434 1433 1439 1436 1433 1432 1419 1413 1412 1417 1410 1420 1424 1430 1432 1428 1398 1394 1398 1407 1405 1405
1394 1394 1394 1395 1396 1397 1398 1400 1402 1405 1409 1413 1416 1423 1431 1436 1432 1430 1430 1432 1436 1437 1441 1439 1438 1435 1433 1432 1431 1428 1430 1421 1412 1416 1407 1409 1403 1411 1412 1413 1405 1403 1399 1403 1405 1407 1409